Terminal Aerodrome Forecast
Issued by NWS Cleveland, OH

Home | Current Version | Previous Version | Graphics & Text | Print | Product List | Glossary On
Versions: 1 2 3 4 5 6 7 8 9 10 11 12 13 14 15 16 17
000
FTUS41 KCLE 311430 AAA
TAFTOL
TAF AMD
KTOL 311430Z 3114/0112 04015G25KT 2SM RA BR BKN008 OVC015
     FM312100 05015G25KT 6SM -SHRA BR OVC008
     FM010200 02014KT P6SM OVC005=

USA.gov is the U.S. government's official web portal to all federal, state and local government web resources and services.